Wind_Speed
17 14 14 12 12 12 12 10 9 5 3 3 3 3 3 3 5 5 7 8 7 7 7 8 9 10 12 13 13 15 18 19 17 14 10 13 10 12 15 14 13 9 18
15 17 18 16 14 14 12 11 11 11 8 7 6 6 6 7 8 7 6 7 8 9 9 10 10 10 11 13 14 14 15 14 15 13 12 17 9 11 12 12 12 13 13
13 16 19 19 19 16 14 13 10 8 9 10 11 10 10 10 10 12 10 8 8 8 9 10 11 12 13 13 14 14 14 13 12 12 11 11 13 10 12 13 11 14 15
10 12 14 17 15 14 15 15 15 9 10 10 10 11 12 12 12 11 12 11 9 8 8 7 10 11 12 13 13 13 14 14 12 11 10 11 10 11 11 14 22 18 17
7 6 8 11 14 14 16 13 13 14 13 12 12 13 13 13 13 11 9 10 9 11 11 12 11 13 14 15 14 14 14 15 13 12 10 11 10 12 12 15 20 17 19
8 5 4 9 12 9 15 18 16 16 13 13 16 17 17 15 15 12 11 11 13 14 16 15 14 14 14 15 15 16 15 14 14 12 11 11 10 13 14 15 17 14 15
22 10 9 8 13 5 7 14 16 15 14 12 14 16 18 19 18 17 13 13 12 17 19 17 20 17 15 13 14 15 17 16 15 14 12 12 12 14 16 18 7 18 16
28 16 11 12 11 10 4 9 11 15 15 16 16 16 19 23 23 18 17 17 20 21 18 20 20 23 20 17 14 15 16 16 16 15 12 13 13 15 14 16 19 17 18
27 28 24 22 10 14 12 7 9 13 14 13 17 20 21 23 25 25 22 20 22 21 24 20 21 24 23 22 21 17 17 16 17 17 15 15 15 16 14 12 18 19 15
17 29 28 29 16 21 17 14 10 11 18 16 20 21 23 26 30 28 28 28 27 25 24 22 27 27 24 25 24 21 20 18 18 18 18 16 14 14 14 14 14 12 6
15 27 33 32 26 32 23 17 8 15 18 22 24 27 25 30 34 34 27 29 30 29 26 28 28 29 25 24 23 24 22 21 20 17 16 15 15 15 14 13 11 9 4
13 23 33 32 32 39 31 19 15 17 26 27 27 28 31 37 37 38 34 30 27 26 24 32 36 27 23 21 22 21 21 22 24 19 18 18 15 13 14 14 12 5 3
14 14 26 32 31 33 34 33 21 27 31 28 34 37 40 41 40 35 31 25 25 25 29 34 23 22 17 19 20 18 21 23 24 22 22 21 17 15 11 13 9 8 5
22 19 16 20 25 27 26 27 25 32 33 36 35 38 43 45 45 38 26 23 22 23 28 30 26 22 16 24 21 17 23 24 28 23 18 18 17 17 12 11 11 10 8
30 22 20 18 25 27 31 33 34 36 39 37 34 40 44 44 42 33 24 23 23 22 21 23 27 23 21 14 11 18 21 23 20 19 15 16 18 20 13 13 12 8 8
31 28 22 22 25 28 34 36 37 40 41 41 43 44 43 41 37 27 23 23 25 25 25 23 21 20 21 20 19 23 21 21 20 22 17 17 22 21 17 16 13 11 10
32 32 29 24 23 28 32 36 37 38 41 42 41 40 37 38 35 33 29 28 26 29 31 27 24 24 26 25 22 23 20 23 24 26 27 24 22 16 17 16 14 14 12
33 31 29 30 26 23 28 34 38 40 40 40 40 39 38 39 41 39 33 31 31 27 29 28 27 27 25 22 23 27 26 28 25 21 26 26 24 21 18 19 17 17 15
34 34 30 31 31 31 30 29 31 36 40 40 39 41 43 43 38 35 34 32 29 30 29 29 28 28 27 25 24 24 24 23 21 20 18 26 24 23 22 22 23 22 21
39 39 34 30 31 33 35 33 34 33 35 36 37 39 39 39 38 36 35 34 34 33 30 30 30 30 29 25 24 24 19 20 16 16 13 25 23 26 26 29 29 28 28
43 43 38 33 32 33 34 36 37 37 35 35 34 35 37 38 37 36 36 35 34 34 34 32 30 29 30 31 26 24 22 16 13 15 17 24 26 32 34 37 34 29 29
42 42 39 37 35 34 35 36 37 38 39 39 38 36 37 38 38 36 37 39 39 37 36 37 35 33 32 33 34 31 28 24 22 24 26 29 32 35 35 31 28 29 23
45 45 41 38 36 37 37 38 38 39 40 40 40 40 39 39 39 40 40 40 41 42 40 41 39 36 35 36 37 38 34 32 27 29 34 34 38 35 35 34 29 31 32
49 46 43 41 40 40 38 37 38 39 39 40 41 42 43 44 45 46 46 46 46 47 47 47 46 44 42 41 40 41 42 38 33 32 32 37 40 40 37 38 38 37 37
51 46 43 42 42 42 41 41 41 41 40 41 42 43 44 45 46 48 50 51 51 51 51 51 51 50 47 46 46 45 44 44 42 38 36 35 36 38 41 42 41 40 41
48 44 43 43 43 44 43 43 43 44 44 44 43 44 45 45 46 47 47 48 50 50 53 54 55 55 55 54 52 50 49 48 47 45 41 38 38 38 37 38 37 36 36
Wind_Direction
39 43 39 29 29 36 37 40 38 30 9 345 328 330 319 270 260 269 274 281 288 290 300 304 310 320 321 324 331 332 325 335 343 349 355 354 358 16 11 27 18 29 31
42 56 49 43 34 29 24 27 29 36 39 30 7 331 308 298 293 280 265 266 269 277 281 285 291 301 303 311 316 319 323 326 332 344 352 360 6 3 3 5 359 3 8
51 52 47 47 45 42 42 38 24 14 24 28 23 12 353 335 311 284 275 272 276 281 286 290 295 297 301 297 302 306 314 319 325 338 343 340 349 350 352 346 344 352 352
50 45 45 42 39 36 33 28 31 20 12 5 355 358 357 355 336 304 258 257 263 276 286 284 283 285 288 291 293 295 301 307 314 323 325 326 327 333 341 334 353 355 349
7 37 32 44 29 36 28 22 12 24 16 7 4 355 341 338 350 343 303 280 291 295 285 281 279 283 284 282 284 289 289 294 300 303 310 309 317 326 327 326 327 340 343
317 289 327 327 335 20 26 25 23 16 24 27 29 26 17 350 339 349 340 327 301 301 291 287 278 271 276 284 283 278 278 283 288 288 293 297 309 310 317 317 306 330 342
268 255 283 280 317 322 17 16 12 13 359 358 4 5 6 6 7 360 347 336 305 284 290 294 288 285 280 276 280 269 265 269 275 278 284 291 303 308 314 316 308 335 336
275 288 283 215 274 284 340 352 354 357 358 345 337 338 343 344 338 345 341 339 316 302 292 287 296 281 279 279 273 271 265 266 268 268 274 288 291 289 298 296 304 323 324
264 296 299 305 272 277 272 324 325 333 342 339 340 341 342 345 343 333 330 319 322 311 292 284 282 275 281 276 270 263 260 262 268 273 278 284 290 290 296 297 302 316 329
256 280 297 276 277 265 251 270 289 312 323 318 323 323 333 334 338 332 322 319 319 316 320 289 276 279 280 278 270 268 264 260 259 271 278 283 282 284 287 294 304 310 311
270 269 273 239 315 203 242 234 250 313 310 307 312 308 314 326 329 329 325 317 314 313 303 297 264 263 264 267 272 269 268 265 263 261 264 267 273 275 281 292 286 287 252
330 271 281 293 305 303 304 270 324 308 297 301 311 319 317 319 322 322 314 312 311 307 294 290 268 248 263 267 264 262 264 264 263 254 253 257 261 266 273 272 253 210 224
323 314 269 282 297 310 309 311 318 298 310 300 312 315 317 316 321 323 318 314 312 311 302 298 261 228 234 250 260 260 258 254 254 254 254 252 242 241 257 251 216 220 237
325 327 317 292 283 287 291 293 290 291 297 304 307 308 311 313 316 320 317 315 316 312 311 318 333 261 260 244 247 266 273 271 251 248 246 251 233 232 224 226 228 220 208
327 326 321 293 282 282 281 281 282 285 290 294 295 299 303 306 311 313 314 312 315 320 311 326 328 316 267 304 284 291 293 279 253 245 242 234 224 221 207 218 215 209 222
323 317 314 293 285 276 273 277 277 280 285 289 290 293 297 301 307 305 314 318 311 306 313 317 314 311 312 305 301 295 311 308 276 253 229 239 238 199 210 207 213 211 217
323 310 309 305 297 283 277 277 278 279 282 285 289 294 297 300 305 306 306 309 307 305 302 304 304 303 297 294 303 293 288 312 304 306 265 219 230 223 219 217 221 223 226
323 316 306 304 305 286 281 282 280 279 280 284 288 292 295 299 303 304 302 295 298 298 292 295 295 294 296 293 283 285 283 293 299 293 290 240 218 219 221 231 228 237 236
320 321 307 304 303 300 296 292 286 284 280 280 286 288 291 292 291 293 294 292 292 297 293 292 292 290 287 281 286 288 290 292 293 327 258 224 220 219 226 234 234 235 236
317 320 314 301 297 297 296 293 292 287 287 286 286 284 283 286 290 291 290 289 289 288 289 290 289 290 294 288 283 278 278 287 291 285 308 217 225 235 234 239 236 235 240
312 317 310 300 295 293 291 291 293 290 285 282 282 282 282 285 285 287 287 286 285 287 287 286 285 282 283 287 286 286 278 267 268 282 255 246 228 241 244 246 256 253 240
310 310 301 297 295 293 291 288 288 286 285 285 284 282 281 282 283 284 284 286 287 285 285 286 285 283 279 277 276 277 276 272 259 247 245 233 235 240 246 257 276 283 272
305 306 299 293 291 291 291 288 285 284 283 283 284 285 284 284 283 283 283 283 284 285 284 283 280 280 280 277 276 274 269 267 261 250 246 251 250 250 256 263 263 268 275
304 302 296 294 292 293 291 287 284 282 280 280 281 282 284 285 286 286 286 285 284 283 282 281 280 276 271 270 271 270 270 263 261 261 254 249 254 258 256 257 263 267 270
302 298 294 292 293 293 291 289 287 285 283 281 280 280 279 279 279 280 282 283 283 282 280 279 278 276 273 270 268 266 264 263 261 259 259 257 253 253 254 257 260 263 266
297 292 289 290 291 290 290 289 288 286 284 282 282 282 283 283 283 281 280 281 281 281 280 279 277 276 276 272 267 264 262 260 258 257 254 252 254 256 257 260 262 263 265
Height
5960 5959 5959 5960 5960 5960 5960 5960 5960 5960 5960 5960 5960 5961 5961 5962 5963 5964 5965 5965 5966 5967 5967 5968 5968 5968 5968 5967 5966 5963 5961 5959 5956 5956 5956 5955 5954 5955 5953 5952 5950 5948 5948
5963 5962 5962 5962 5961 5960 5960 5961 5961 5960 5960 5960 5960 5961 5961 5961 5961 5962 5963 5963 5963 5964 5965 5966 5965 5965 5965 5965 5963 5962 5961 5959 5958 5958 5956 5954 5953 5953 5954 5953 5951 5949 5947
5966 5964 5964 5964 5962 5962 5961 5960 5961 5961 5961 5961 5961 5961 5961 5961 5960 5959 5959 5960 5960 5961 5962 5962 5962 5961 5961 5962 5961 5961 5959 5958 5957 5957 5956 5955 5954 5952 5952 5950 5949 5947 5946
5967 5967 5967 5966 5965 5964 5963 5962 5961 5961 5961 5961 5961 5961 5961 5959 5957 5955 5956 5957 5958 5958 5957 5959 5960 5959 5959 5958 5958 5958 5957 5955 5956 5955 5955 5954 5953 5952 5951 5948 5945 5946 5945
5970 5968 5967 5968 5967 5965 5963 5962 5962 5961 5961 5961 5961 5961 5959 5957 5957 5955 5956 5958 5957 5957 5955 5953 5954 5955 5955 5956 5956 5955 5955 5954 5954 5953 5953 5952 5951 5950 5949 5947 5945 5944 5943
5967 5972 5970 5968 5969 5967 5964 5962 5962 5961 5961 5961 5961 5960 5958 5956 5956 5957 5957 5957 5956 5955 5952 5950 5949 5949 5950 5950 5952 5952 5951 5951 5951 5950 5949 5949 5949 5948 5947 5944 5941 5942 5941
5953 5963 5969 5968 5967 5966 5964 5962 5962 5962 5962 5962 5961 5960 5958 5957 5957 5956 5956 5954 5953 5950 5950 5951 5949 5948 5948 5946 5946 5947 5947 5947 5947 5947 5946 5946 5945 5945 5944 5940 5927 5938 5937
5956 5953 5961 5960 5965 5964 5963 5962 5962 5961 5960 5960 5959 5959 5959 5957 5955 5956 5955 5952 5949 5947 5950 5948 5948 5946 5945 5945 5941 5941 5943 5943 5943 5942 5942 5942 5942 5941 5940 5938 5934 5935 5936
5951 5942 5955 5955 5958 5964 5962 5962 5959 5960 5960 5958 5957 5955 5956 5954 5953 5950 5949 5947 5944 5944 5945 5944 5941 5941 5941 5939 5938 5936 5938 5939 5938 5939 5938 5938 5937 5937 5936 5934 5933 5933 5932
5959 5945 5947 5951 5950 5959 5960 5956 5957 5959 5959 5957 5955 5954 5952 5950 5949 5948 5944 5941 5938 5935 5934 5937 5936 5936 5932 5935 5935 5932 5934 5935 5933 5933 5934 5934 5934 5933 5932 5931 5931 5929 5929
5956 5948 5937 5901 5932 5917 5946 5947 5945 5953 5955 5954 5952 5950 5949 5948 5945 5943 5941 5938 5935 5931 5929 5925 5926 5925 5926 5926 5925 5928 5929 5931 5930 5929 5929 5930 5929 5929 5928 5927 5927 5925 5925
5954 5947 5936 5933 5930 5936 5928 5899 5929 5944 5951 5950 5948 5946 5944 5943 5941 5937 5934 5931 5930 5927 5923 5917 5913 5912 5915 5918 5920 5921 5923 5924 5924 5924 5923 5922 5923 5925 5924 5923 5923 5923 5922
5951 5950 5944 5935 5935 5929 5930 5930 5924 5939 5942 5943 5941 5938 5936 5934 5932 5931 5928 5927 5925 5920 5918 5907 5883 5900 5905 5910 5914 5915 5915 5916 5917 5918 5918 5917 5916 5917 5918 5918 5918 5918 5919
5945 5945 5944 5940 5938 5936 5934 5933 5937 5938 5938 5936 5934 5931 5929 5927 5924 5923 5922 5922 5921 5917 5911 5908 5904 5901 5903 5902 5904 5908 5910 5912 5912 5912 5910 5912 5911 5913 5912 5911 5914 5916 5915
5938 5937 5938 5936 5934 5934 5934 5934 5934 5933 5931 5931 5929 5927 5925 5922 5920 5918 5916 5916 5915 5913 5910 5906 5903 5902 5903 5899 5903 5903 5905 5904 5906 5907 5907 5907 5906 5905 5905 5908 5910 5911 5912
5933 5932 5932 5929 5928 5929 5927 5927 5927 5926 5923 5923 5923 5921 5919 5916 5915 5913 5911 5909 5907 5907 5904 5903 5902 5901 5901 5899 5896 5898 5899 5901 5903 5901 5902 5904 5901 5898 5901 5902 5906 5908 5909
5931 5926 5925 5925 5923 5920 5919 5918 5918 5918 5917 5916 5915 5913 5912 5909 5910 5908 5907 5905 5902 5900 5899 5898 5897 5895 5895 5894 5892 5894 5895 5895 5895 5896 5897 5898 5899 5896 5900 5899 5901 5903 5905
5927 5922 5920 5916 5916 5917 5914 5911 5909 5907 5908 5907 5907 5906 5904 5902 5900 5900 5900 5899 5898 5895 5892 5891 5889 5888 5888 5888 5889 5890 5890 5890 5888 5890 5889 5891 5893 5895 5894 5897 5895 5897 5900
5921 5917 5914 5910 5907 5905 5905 5905 5902 5899 5898 5898 5898 5897 5895 5894 5892 5891 5891 5891 5890 5889 5888 5886 5885 5883 5884 5884 5882 5882 5883 5883 5882 5880 5877 5883 5887 5885 5886 5889 5889 5888 5891
5912 5909 5908 5905 5901 5897 5894 5894 5893 5892 5889 5889 5888 5886 5886 5884 5883 5882 5881 5881 5881 5880 5880 5879 5878 5876 5874 5876 5876 5877 5878 5878 5877 5877 5877 5875 5879 5879 5880 5880 5878 5880 5883
5903 5901 5898 5897 5894 5890 5888 5885 5882 5880 5880 5879 5879 5877 5876 5875 5875 5873 5872 5871 5872 5870 5870 5871 5871 5870 5868 5866 5867 5868 5869 5871 5871 5872 5872 5874 5872 5873 5874 5872 5864 5869 5873
5897 5892 5888 5886 5884 5882 5880 5877 5874 5872 5870 5868 5868 5868 5867 5865 5864 5863 5863 5860 5859 5860 5861 5860 5860 5860 5859 5858 5857 5858 5859 5861 5863 5865 5866 5865 5866 5865 5866 5867 5863 5861 5864
5886 5883 5879 5876 5874 5872 5869 5867 5865 5862 5860 5859 5858 5856 5856 5855 5853 5852 5851 5850 5849 5847 5848 5847 5848 5850 5849 5848 5846 5845 5848 5850 5852 5853 5855 5855 5856 5857 5856 5856 5858 5859 5857
5872 5869 5866 5864 5862 5860 5858 5857 5855 5852 5851 5849 5847 5846 5844 5841 5839 5838 5837 5836 5835 5834 5833 5833 5833 5834 5835 5835 5835 5835 5834 5838 5841 5841 5843 5843 5844 5845 5846 5847 5847 5848 5848
5860 5857 5854 5851 5849 5847 5845 5843 5842 5839 5838 5836 5835 5833 5832 5830 5829 5826 5822 5820 5820 5818 5817 5816 5815 5815 5818 5819 5819 5820 5822 5823 5826 5828 5830 5831 5832 5834 5835 5837 5838 5838 5839
5848 5846 5842 5839 5837 5834 5833 5830 5828 5825 5823 5822 5820 5818 5816 5814 5812 5810 5810 5807 5804 5801 5799 5797 5797 5798 5798 5799 5801 5802 5804 5807 5810 5813 5816 5819 5820 5821 5822 5823 5823 5825 5826